Flag for Germany Weather past 2 weeks in Darmstadt, Hesse, Germany

Now
43 °F

Sprinkles. Broken clouds.


Feels Like: 35 °F
Forecast: 36 / 42 °F
Wind: 15 mph from Southwest

Location: Frankfurt-M-Flughafen Airport

Current Time: Dec 20, 2014 at 3:03:58 PM

Latest Report: Dec 20, 2014 at 2:20 PM


Visibility: N/A

Pressure: 30.15 "Hg

Humidity: 87%

Dew point: 39 °F

Location of DarmstadtLocation

Historic Weather in Darmstadt — Graph

°F

Darmstadt temperature yesterday

Maximum temperature yesterday: 54 °F (at 12:20 AM)
Minimum temperature yesterday: 45 °F (at 9:50 PM)
Average temperature yesterday: 51 °F

Past Weeks' High & Low Weather Summary

 TemperatureHumidityPressure
High57 °F (Dec 18, 7:50 PM)100% (Dec 6, 1:20 AM)30.42 "Hg (Dec 6, 1:20 AM)
Low28 °F (Dec 8, 10:20 PM)66% (Dec 20, 12:20 AM)29.59 "Hg (Dec 12, 6:20 PM)
Average41 °F90%30.02 "Hg
* Reported Dec 5 1:20 PM — Dec 20 1:20 PM, Darmstadt, Weather by CustomWeather, © 2014

Note: Actual official high and low records may vary slightly from our data, if they occured in-between our weather recording intervals... More about our weather records

Advertising

Darmstadt weather history for previous 24 hours

 ConditionsComfort  
Time TempWeatherWind HumidityBarometerVisibility
1:20 PM
Dec 20
45 °FBroken clouds.16 mph76%30.15 "HgN/A
12:50 PM43 °FSprinkles. Broken clouds.16 mph81%30.15 "HgN/A
12:20 PM43 °FSprinkles. Partly sunny.18 mph81%30.18 "HgN/A
11:50 AM45 °FSprinkles. Partly sunny.15 mph76%30.18 "HgN/A
11:20 AM43 °FLight rain. Broken clouds.15 mph76%30.21 "HgN/A
10:50 AM43 °FBroken clouds.18 mph76%30.21 "HgN/A
10:20 AM43 °FPartly sunny.16 mph76%30.21 "HgN/A
9:50 AM41 °FPartly sunny.15 mph81%30.21 "HgN/A
9:20 AM39 °FBroken clouds.14 mph87%30.21 "HgN/A
8:50 AM39 °FScattered clouds.13 mph87%30.24 "HgN/A
8:20 AM39 °FPassing clouds.8 mph87%30.24 "HgN/A
7:50 AM36 °FPassing clouds.10 mph93%30.24 "HgN/A
7:20 AM37 °FPassing clouds.9 mph87%30.24 "HgN/A
6:50 AM36 °FPassing clouds.6 mph93%30.24 "HgN/A
6:20 AM36 °FPassing clouds.8 mph93%30.21 "HgN/A
5:50 AM39 °FPassing clouds.8 mph81%30.21 "HgN/A
5:20 AM39 °FPassing clouds.9 mph81%30.21 "HgN/A
4:50 AM39 °FPassing clouds.12 mph81%30.21 "HgN/A
4:20 AM39 °FPassing clouds.10 mph81%30.21 "HgN/A
3:50 AM37 °FPassing clouds.9 mph87%30.21 "HgN/A
3:20 AM41 °FPassing clouds.9 mph81%30.21 "HgN/A
2:50 AM41 °FPassing clouds.7 mph81%30.21 "HgN/A
2:20 AM41 °FPassing clouds.8 mph81%30.18 "HgN/A
1:50 AM43 °FPassing clouds.8 mph76%30.18 "HgN/A
1:20 AM43 °FPassing clouds.8 mph76%30.18 "HgN/A
12:50 AM43 °FPassing clouds.8 mph76%30.18 "HgN/A
12:20 AM45 °FPassing clouds.8 mph66%30.18 "HgN/A
11:50 PM
Dec 19
45 °FPassing clouds.10 mph71%30.15 "HgN/A
11:20 PM45 °FPassing clouds.16 mph71%30.15 "HgN/A
10:50 PM45 °FPassing clouds.10 mph71%30.12 "HgN/A
10:20 PM45 °FPassing clouds.13 mph71%30.12 "HgN/A
9:50 PM45 °FPassing clouds.12 mph76%30.09 "HgN/A
9:20 PM46 °FPassing clouds.10 mph71%30.09 "HgN/A
8:50 PM46 °FPassing clouds.17 mph71%30.07 "HgN/A
8:20 PM46 °FPartly cloudy.15 mph76%30.04 "HgN/A
7:50 PM46 °FPassing clouds.15 mph76%30.04 "HgN/A
7:20 PM48 °FPartly cloudy.17 mph76%30.01 "HgN/A
6:50 PM48 °FPartly cloudy.9 mph94%30.01 "HgN/A
6:20 PM50 °FLight rain. Partly cloudy.14 mph88%29.98 "HgN/A
5:50 PM50 °FHeavy rain. Passing clouds.13 mph88%29.95 "Hg3 mi
5:20 PM52 °FRain. Passing clouds.16 mph88%29.95 "HgN/A
4:50 PM52 °FLight rain. Passing clouds.17 mph88%29.92 "HgN/A
4:20 PM52 °FLight rain. Partly sunny.17 mph88%29.92 "HgN/A
3:50 PM52 °FLight rain. Partly sunny.20 mph88%29.92 "HgN/A
3:20 PM52 °FLight rain. Partly sunny.17 mph88%29.92 "HgN/A
Weather by CustomWeather, © 2014

See weather overviewHow to use our weather pages